Weather in Cascais

Portugal     38°42′29″N   9°26′03″W
temp.,
°C
wind,
m/s
gust,
m/s
humid.,
%
clouds,
%
prec.,
mm/h
press.,
hPa
HPBL,
m
13 may, thu
thu1301:00+15nw56783 0.0 1023708
04:00+15wnw577911 0.0 1022736
07:00+15wnw56797 0.0 1021653
10:00+16wnw577970 0.0 1022663
13:00+17w6884100 0.0 1021677
16:00+17wnw7118874 0.3 1020637
19:00+17nw71085100 0.3 1020626
22:00+16nw810860 0.0 1021739
14 may, fri
fri1401:00+16nnw810855 0.0 1021715
04:00+16nnw78856 0.0 1019589
07:00+16nnw678477 0.0 1020573
10:00+16nnw677969 0.0 1021609
13:00+16nnw677699 0.0 1021520
16:00+16nnw677895 0.0 1020482
19:00+16nnw6881100 0.0 1020441
22:00+16nnw5887100 0.0 1020331
15 may, sat
sat1501:00+16nnw4788100 0.0 1020323
04:00+16nnw349190 0.0 1018203
07:00+16nnw23885 0.0 1019140
10:00+17nw34825 0.0 1019214
13:00+18nw458270 0.0 1019243
16:00+18nw468332 0.0 1019251
19:00+18nnw588538 0.0 1018250
22:00+17nnw5690100 0.0 1018127
16 may, sun
sun1601:00+17n3494100 0.0 1018107
04:00+17nnw339339 0.0 1018106
07:00+17nnw448864 0.0 1018132
10:00+17nnw568585 0.0 1019263
13:00+18nw579090 0.0 1019281
16:00+18nw6892100 0.0 1018436
19:00+17n91186100 0.0 1019460
22:00+16n81189100 0.0 1020621
17 may, mon
mon1701:00+16n91279100 0.0 1020698
04:00+16n101275100 0.0 1021754
07:00+15n101272100 0.0 1022890
10:00+16n10117092 0.0 1023888
13:00+16n10116627 0.0 1024685
16:00+16n11126987 0.0 1024674
19:00+16n111371100 0.0 1024699
22:00+16n11147294 0.0 1025679